{"data":{"norad_id":52841,"epoch":"2026-05-25T00:52:41.140992Z","epoch_age_seconds":71051,"freshness":"FRESH","line1":"1 52841U 22062M   26145.03658728 -.00000679  00000+0 -24560-4 0  9993","line2":"2 52841  53.2132  51.3837 0001487  80.0374 280.0786 15.08844094217315","mean_motion":15.08844094,"eccentricity":0.0001487,"inclination_deg":53.2132,"raan_deg":51.3837,"arg_perigee_deg":80.0374,"mean_anomaly_deg":280.0786,"bstar":-2.456e-5,"rev_number":21731,"period_min":95.437295723676,"perigee_km":538.70218831918,"apogee_km":540.75956222528,"semimajor_km":6917.8678752722,"source":"CELESTRAK","updated_at":"2026-05-25T13:38:17.242858Z"}}